[[{"header":{"parameterUnit":"m.s-1","parameterCategory":1,"la1":30.2991,"la2":30.254,"lo1":-89.0895,"lo2":-89.0444,"dy":0.0017,"dx":0.0017,"nx":28,"ny":28,"refTime":"2025-03-15T03:00:00:Z","depth":0,"parameterNumber":2,"parameterNumberName":"U-component_of_WINDS"},"data":[0,0,0,0,0,0,0,0,0,0,0,0,0,0,0,0,0,0,0,0,0,0,0,0,0,0,0,0,0,0,0,0,0,0,0,0,0,0,0,0,0,0,0,0,0,0,0,0,0,0,0,0,0,0,0,0,0,0,-4.3526,-4.3527,0,-4.3607,-4.3608,-4.3609,-4.36,-4.3598,-4.3597,-4.3596,-4.3679,-4.3682,-4.3685,0,0,0,0,0,0,0,0,0,0,0,0,0,-4.3362,-4.3365,-4.3526,-4.3527,-4.3528,-4.3607,-4.3608,-4.3609,-4.36,-4.3598,-4.3597,-4.3595,-4.3678,-4.3682,-4.3686,0,0,0,0,0,0,0,0,0,0,0,0,0,-4.3438,-4.3366,-4.3526,-4.3533,-4.3534,-4.3607,-4.3608,-4.361,-4.36,-4.3598,-4.3596,-4.3595,-4.3676,-4.3681,-4.3686,-4.3757,0,0,-4.3702,-4.3704,0,0,0,0,0,0,0,0,-4.3433,-4.3444,-4.3531,-4.3532,-4.3534,-4.3591,-4.3581,-4.3659,-4.3601,-4.3575,-4.3596,-4.3594,-4.3651,-4.3658,-4.3678,-4.3761,-4.3764,-4.3702,-4.3705,-4.3708,-4.3709,0,0,0,0,0,0,0,-4.3428,-4.344,-4.3558,-4.3532,-4.3534,-4.3532,-4.3541,-4.3596,-4.3623,-4.3577,-4.3577,-4.3587,-4.3652,-4.3673,-4.368,-4.3766,-4.3702,-4.3707,-4.371,-4.3712,-4.3912,-4.3914,0,0,0,0,0,0,-4.3421,-4.3436,-4.3555,-4.356,-4.3478,-4.3537,-4.3546,-4.3575,-4.3623,-4.3628,-4.3588,-4.3586,-4.3665,-4.3674,-4.3683,-4.3768,-4.3708,-4.3712,-4.3715,-4.3909,-4.3912,-4.3914,0,0,0,0,0,0,-4.3418,-4.3432,-4.3552,-4.3498,-4.3513,-4.3541,-4.3574,-4.3578,-4.3599,-4.3631,-4.3636,-4.3605,-4.3664,-4.3675,-4.3739,-4.3771,-4.3715,-4.3719,-4.3907,-4.391,-4.3913,-4.394,0,0,0,0,0,0,-4.3413,-4.3431,-4.3458,-4.3499,-4.3516,-4.3607,-4.3576,-4.3581,-4.3608,-4.3605,-4.3648,-4.3653,-4.3663,-4.3731,-4.3744,-4.3777,-4.3723,-4.3904,-4.3908,-4.3912,-4.3936,-4.3944,-4.395,0,0,0,0,0,-4.3407,-4.3462,-4.3459,-4.3473,-4.355,-4.3609,-4.3619,-4.363,-4.361,-4.3638,-4.3659,-4.3651,-4.3766,-4.3738,-4.3752,-4.3787,-4.3902,-4.3907,-4.3912,-4.3933,-4.3942,-4.395,0,0,0,0,0,0,-4.3423,-4.3467,-4.3465,-4.3534,-4.3568,-4.3607,-4.3641,-4.3639,-4.3679,-4.3675,-4.3687,-4.3697,-4.3761,-4.3781,-4.3749,-4.3858,-4.3831,-4.3839,-4.3842,-4.3851,-4.3858,-4.3851,-4.3728,0,0,0,0,0,-4.3434,-4.3478,-4.3515,-4.3572,-4.3589,-4.3613,-4.3639,-4.3645,-4.368,-4.3694,-4.3719,-4.3754,-4.3798,-4.3826,-4.3868,-4.394,-4.3949,-4.3971,-4.3978,-4.3984,-4.399,-4.4029,-4.404,-4.3931,-4.3931,-4.3931,0,0,-4.3458,-4.3488,-4.3515,-4.3576,-4.3603,-4.3648,-4.3625,-4.3673,-4.3706,-4.3701,-4.3762,-4.3783,-4.3822,-4.389,-4.3921,-4.3908,-4.4023,-4.399,-4.3995,-4.3998,-4.4036,-4.4046,-4.4055,-4.3934,-4.3934,-4.3933,0,0,-4.3525,-4.3552,-4.3603,-4.3631,-4.3672,-4.3687,-4.37,-4.374,-4.3753,-4.3815,-4.3813,-4.3853,-4.3928,-4.3956,-4.3981,-4.406,-4.4055,-4.4074,-4.4109,-4.4148,-4.4156,-4.4164,-4.4191,-4.4201,-4.4081,-4.4081,-4.4081,0,-4.3549,-4.3616,-4.3629,-4.3678,-4.3705,-4.3704,-4.3756,-4.3782,-4.3835,-4.3854,-4.3839,-4.3934,-4.3961,-4.4035,-4.4055,-4.4075,-4.4089,-4.4068,-4.4154,-4.4162,-4.4169,-4.4195,-4.4205,-4.4083,-4.4082,-4.4082,-4.4082,0,-4.3644,-4.3691,-4.3727,-4.3778,-4.381,-4.386,-4.3881,-4.3911,-4.3916,-4.3933,-4.3996,-4.4029,-4.4077,-4.4096,-4.4101,-4.4172,-4.4162,-4.4151,-4.4124,-4.4181,-4.4206,-4.4216,-4.4085,-4.4085,-4.4084,-4.4084,0,0,-4.3719,-4.3779,-4.3791,-4.3815,-4.3862,-4.3898,-4.3949,-4.3997,-4.4023,-4.406,-4.4103,-4.4168,-4.4158,-4.4185,-4.4193,-4.4227,-4.4287,-4.4212,-4.4213,-4.4223,-4.4367,-4.4374,-4.4385,-4.4286,-4.4288,-4.4289,-4.4363,0,-4.3789,-4.3878,-4.3892,-4.397,-4.4014,-4.4014,-4.4059,-4.4092,-4.4111,-4.415,-4.4171,-4.4216,-4.42,-4.4217,-4.4251,-4.4273,-4.4316,-4.4268,-4.4324,-4.4326,-4.4312,-4.4398,-4.4405,-4.4473,-4.4373,-4.4375,-4.4376,0,-4.3881,-4.3921,-4.4004,-4.4045,-4.4064,-4.4103,-4.4149,-4.4187,-4.4226,-4.4237,-4.4269,-4.4273,-4.4326,-4.4299,-4.4372,-4.4339,-4.4363,-4.4378,-4.4381,-4.4384,-4.4352,-4.4402,-4.4495,-4.4505,-4.4392,-4.439,-4.4389,0,-4.3925,-4.4001,-4.406,-4.408,-4.413,-4.4158,-4.418,-4.4217,-4.4245,-4.4286,-4.4304,-4.4351,-4.4375,-4.4411,-4.4428,-4.4407,-4.45,-4.4474,-4.451,-4.4509,-4.4527,-4.4525,-4.4623,-4.4547,-4.4546,-4.4546,-4.4546,0,-4.4,-4.405,-4.408,-4.4117,-4.4173,-4.419,-4.4246,-4.4267,-4.43,-4.4341,-4.4346,-4.4383,-4.4405,-4.4446,-4.446,-4.4518,-4.453,-4.454,-4.4542,-4.4538,-4.4536,-4.4552,-4.4547,-4.4549,-4.4548,-4.4548,-4.4547,0,-4.4058,-4.4081,-4.4145,-4.4188,-4.42,-4.424,-4.4277,-4.4312,-4.4331,-4.4383,-4.4396,-4.4426,-4.4475,-4.4496,-4.4556,-4.4566,-4.4632,-4.4632,-4.4618,-4.4619,-4.4653,-4.4649,-4.4762,-4.4778,-4.4693,-4.4694,-4.4694,0,-4.4103,-4.4142,-4.419,-4.4217,-4.424,-4.4285,-4.4314,-4.4333,-4.4363,-4.4411,-4.4441,-4.449,-4.453,-4.4609,-4.4636,-4.4682,-4.4682,-4.4719,-4.4689,-4.4684,-4.4681,-4.4678,-4.4681,-4.4724,-4.4725,-4.4725,-4.4726,0,-4.418,-4.419,-4.4232,-4.4278,-4.4313,-4.4351,-4.4387,-4.441,-4.4434,-4.4468,-4.4519,-4.455,-4.4612,-4.4661,-4.471,-4.4733,-4.4733,-4.4736,-4.4746,-4.4741,-4.4731,-4.4735,-4.4631,-4.4732,-4.4732,-4.4731,-4.4731,-4.4731,-4.4232,-4.4267,-4.4306,-4.4352,-4.4382,-4.4417,-4.4452,-4.4476,-4.4519,-4.457,-4.458,-4.4633,-4.4672,-4.4738,-4.4763,-4.4805,-4.4796,-4.4812,-4.4815,-4.4818,-4.4819,-4.4726,-4.4815,-4.4814,-4.4814,-4.4814,-4.4814,0,-4.4308,-4.4334,-4.4377,-4.4428,-4.4465,-4.4464,-4.4505,-4.4536,-4.4583,-4.462,-4.4659,-4.4718,-4.4766,-4.4798,-4.4846,-4.4874,-4.4875,-4.4886,-4.4883,-4.4888,-4.4826,-4.4811,-4.4884,-4.4884,-4.4884,-4.4884,-4.4884,-4.4884,-4.4352,-4.441,-4.4424,-4.4498,-4.4523,-4.4576,-4.4599,-4.4631,-4.466,-4.4725,-4.4765,-4.4786,-4.4821,-4.4872,-4.4916,-4.4924,-4.4941,-4.4952,-4.4959,-4.49,-4.4892,-4.4885,-4.4871,-4.4956,-4.4956,-4.5018,-4.5018,-4.5019]},{"header":{"parameterUnit":"m.s-1","parameterCategory":1,"la1":30.2991,"la2":30.254,"lo1":-89.0895,"lo2":-89.0444,"dy":0.0017,"dx":0.0017,"nx":28,"ny":28,"refTime":"2025-03-15T03:00:00:Z","depth":0,"parameterNumber":3,"parameterNumberName":"V-component_of_WINDS"},"data":[0,0,0,0,0,0,0,0,0,0,0,0,0,0,0,0,0,0,0,0,0,0,0,0,0,0,0,0,0,0,0,0,0,0,0,0,0,0,0,0,0,0,0,0,0,0,0,0,0,0,0,0,0,0,0,0,0,0,4.2574,4.2574,0,4.2568,4.2568,4.2568,4.257,4.257,4.257,4.257,4.2562,4.2562,4.2561,0,0,0,0,0,0,0,0,0,0,0,0,0,4.2585,4.2585,4.2574,4.2574,4.2574,4.2568,4.2568,4.2568,4.257,4.257,4.257,4.2571,4.2562,4.2562,4.2561,0,0,0,0,0,0,0,0,0,0,0,0,0,4.258,4.2585,4.2574,4.2574,4.2574,4.2568,4.2568,4.2568,4.257,4.257,4.257,4.2571,4.2562,4.2562,4.2561,4.2554,0,0,4.256,4.2559,0,0,0,0,0,0,0,0,4.258,4.2579,4.2574,4.2574,4.2574,4.257,4.2569,4.2563,4.257,4.2571,4.257,4.2571,4.2564,4.2564,4.2562,4.2554,4.2553,4.256,4.2559,4.2559,4.2559,0,0,0,0,0,0,0,4.2581,4.258,4.2571,4.2574,4.2574,4.2574,4.2574,4.2568,4.2567,4.2571,4.2571,4.2571,4.2564,4.2563,4.2562,4.2553,4.256,4.2559,4.2559,4.2559,4.2542,4.2542,0,0,0,0,0,0,4.2581,4.258,4.2572,4.2571,4.2578,4.2574,4.2573,4.2571,4.2567,4.2566,4.2571,4.2571,4.2563,4.2563,4.2562,4.2555,4.2559,4.2559,4.2558,4.2542,4.2542,4.2542,0,0,0,0,0,0,4.2581,4.258,4.2572,4.2576,4.2575,4.2573,4.2571,4.2571,4.2569,4.2566,4.2566,4.2569,4.2564,4.2562,4.2557,4.2555,4.2558,4.2558,4.2543,4.2542,4.2542,4.2541,0,0,0,0,0,0,4.2582,4.258,4.2578,4.2576,4.2575,4.2567,4.2571,4.2571,4.2569,4.2569,4.2565,4.2564,4.2564,4.2558,4.2556,4.2554,4.2557,4.2543,4.2543,4.2542,4.2541,4.2541,4.2541,0,0,0,0,0,4.2582,4.2576,4.2577,4.2576,4.2571,4.2567,4.2566,4.2566,4.2568,4.2566,4.2565,4.2565,4.2556,4.2557,4.2556,4.2553,4.2543,4.2543,4.2542,4.2542,4.2541,4.2541,0,0,0,0,0,0,4.2576,4.2576,4.2577,4.257,4.2569,4.2567,4.2564,4.2565,4.2562,4.2562,4.2562,4.2561,4.2556,4.2554,4.2556,4.2548,4.255,4.2549,4.2549,4.2549,4.2549,4.2549,4.2557,0,0,0,0,0,4.2574,4.2571,4.2571,4.2565,4.2565,4.2565,4.2563,4.2563,4.2561,4.256,4.2559,4.2556,4.2553,4.2551,4.2548,4.2541,4.2542,4.2539,4.2539,4.2539,4.2538,4.2538,4.2537,4.2541,4.2541,4.2541,0,0,4.2569,4.2569,4.2567,4.2564,4.2563,4.2561,4.2564,4.256,4.2559,4.2559,4.2555,4.2554,4.2551,4.2547,4.2544,4.2545,4.2538,4.2538,4.2538,4.2538,4.2537,4.2537,4.2537,4.2541,4.2541,4.2541,0,0,4.256,4.2559,4.2555,4.2555,4.2554,4.2555,4.2554,4.2553,4.2553,4.2549,4.2551,4.2549,4.2543,4.2542,4.2541,4.2535,4.2536,4.2534,4.2532,4.2532,4.2531,4.2531,4.2531,4.2531,4.2534,4.2534,4.2534,0,4.2554,4.2551,4.2553,4.2551,4.255,4.2553,4.255,4.2549,4.2547,4.2547,4.2548,4.2543,4.2541,4.2537,4.2537,4.2535,4.2535,4.2534,4.2531,4.2531,4.2531,4.2531,4.253,4.2534,4.2534,4.2534,4.2534,0,4.2545,4.2543,4.254,4.254,4.2539,4.2536,4.2539,4.2538,4.2539,4.254,4.2537,4.2536,4.2534,4.2533,4.2533,4.253,4.2531,4.2532,4.2533,4.253,4.253,4.253,4.2534,4.2534,4.2534,4.2534,0,0,4.2529,4.2533,4.2532,4.2534,4.2535,4.2533,4.2532,4.2532,4.2532,4.2531,4.253,4.2527,4.2529,4.2527,4.2528,4.2527,4.2526,4.2529,4.2529,4.2529,4.2525,4.2525,4.2525,4.2527,4.2527,4.2527,4.2526,0,4.2521,4.2519,4.2522,4.2519,4.2519,4.2524,4.2522,4.2523,4.2525,4.2525,4.2526,4.2524,4.2526,4.2526,4.2525,4.2526,4.2525,4.2526,4.2527,4.2527,4.2528,4.2525,4.2524,4.2523,4.2526,4.2526,4.2526,0,4.251,4.2512,4.251,4.2515,4.2514,4.2513,4.2515,4.2515,4.2517,4.2518,4.2519,4.252,4.252,4.2522,4.2522,4.2523,4.2523,4.2524,4.2524,4.2524,4.2526,4.2526,4.2522,4.2523,4.2525,4.2525,4.2525,0,4.2501,4.2503,4.2502,4.2503,4.2508,4.2508,4.251,4.2512,4.2513,4.2514,4.2515,4.2516,4.2516,4.2517,4.252,4.2521,4.252,4.2522,4.2522,4.2522,4.2521,4.2521,4.2519,4.252,4.252,4.252,4.252,0,4.2492,4.2491,4.2499,4.2499,4.2498,4.2503,4.2502,4.2505,4.2507,4.2508,4.2512,4.2512,4.2515,4.2516,4.2518,4.2519,4.2519,4.2521,4.2521,4.2521,4.2521,4.2521,4.2522,4.252,4.252,4.252,4.252,0,4.2481,4.2487,4.2487,4.2493,4.2495,4.2494,4.2499,4.25,4.2503,4.2504,4.2505,4.2509,4.2511,4.2514,4.2516,4.2517,4.2519,4.2519,4.2518,4.2519,4.252,4.252,4.2518,4.2519,4.2519,4.2519,4.2519,0,4.2476,4.2476,4.2483,4.2484,4.2487,4.2489,4.2491,4.2496,4.2498,4.2502,4.2502,4.2505,4.2508,4.2511,4.2514,4.2516,4.2518,4.2517,4.2518,4.2518,4.2519,4.252,4.2521,4.2516,4.2516,4.2516,4.2516,0,4.2465,4.2469,4.2472,4.2477,4.248,4.2483,4.2487,4.2488,4.2494,4.2496,4.2499,4.2501,4.2505,4.2509,4.2512,4.2514,4.2517,4.2516,4.2517,4.2516,4.2517,4.2518,4.2519,4.2516,4.2516,4.2516,4.2516,4.2516,4.2458,4.2459,4.2466,4.2469,4.2474,4.2478,4.248,4.2484,4.2487,4.2492,4.2495,4.2499,4.2503,4.2509,4.2511,4.2514,4.2515,4.2515,4.2515,4.2516,4.2516,4.2516,4.2515,4.2515,4.2515,4.2515,4.2515,0,4.2449,4.2454,4.2458,4.2465,4.2469,4.2473,4.2478,4.2481,4.2484,4.2489,4.2493,4.2498,4.2502,4.2507,4.2511,4.2513,4.2515,4.2514,4.2514,4.2515,4.2515,4.2514,4.2513,4.2513,4.2513,4.2513,4.2513,4.2513,4.2445,4.2449,4.2453,4.2459,4.2464,4.2469,4.2472,4.2477,4.2481,4.2487,4.2491,4.2495,4.2501,4.2506,4.2511,4.2512,4.2514,4.2513,4.2515,4.2515,4.2515,4.2515,4.2515,4.2514,4.2514,4.2516,4.2516,4.2516]}]]